Regional Weather Roundup
Issued by NWS Charleston, SC

Current Version | Previous Version | Graphics & Text | Print | Product List | Glossary On
Versions: 1 2 3 4 5 6 7 8 9 10 11 12 13 14 15 16 17 18 19 20 21 22 23 24 25 26 27 28 29 30 31 32 33 34 35 36 37 38 39 40 41 42 43 44 45 46 47 48 49 50
000 ASUS42 KCHS 072127 RWRCHS REGIONAL WEATHER ROUNDUP NATIONAL WEATHER SERVICE CHARLESTON SC 400 PM EST SUN FEB 07 2016 NOTE: "FAIR" INDICATES FEW OR NO CLOUDS BELOW 12,000 FEET WITH NO SIGNIFICANT WEATHER AND/OR OBSTRUCTIONS TO VISIBILITY. NOT ALL STATIONS ARE QUALITY CONTROLLED BY THE NATIONAL WEATHER SERVICE. USE DATA WITH CAUTION...ESPECIALLY DEWPOINT OBSERVATIONS. NOTICE: OBSERVATIONS FOR THE SAVANNAH-HILTON HEAD INTERNATIONAL AIRPORT /KSAV/ HAVE BEEN TEMPORARILY REMOVED DUE TO AN ERRONEOUS TEMPERATURE SENSOR. THE OBSERVATION WILL BE REINTRODUCED ONCE REPAIRS ARE COMPLETE. SCZ027-030-031-034>040-042>050-072200- ...SOUTHEAST SOUTH CAROLINA... CITY SKY/WX TMP DP RH WIND PRES REMARKS N CHARLESTON CLOUDY 45 31 58 N14 29.89F WATERFRONT PRK N/A 43 33 68 NW14 29.74R MOUNT PLEASANT FAIR 39 36 87 NW10G18 29.89S WCI 32 JOHNS ISLAND FAIR 45 32 61 NW8 29.89F PINOPOLIS N/A 43 34 70 N15 29.82F MONCKS CORNER FAIR 41 27 56 N9 29.90F SUMMERVILLE MOCLDY 46 28 49 NW12G20 29.93F BEAUFORT MCAS CLOUDY 50 26 39 NW20 29.93F BEAUFORT ARPT MOCLDY 50 27 40 NW17G29 29.92S HILTON HEAD IS MOSUNNY 50 28 43 N16G35 29.94S WALTERBORO PTCLDY 52 27 37 N13G20 29.93F ALLENDALE FAIR 57 27 30 N10 29.92F ...SOUTHERN MIDLANDS AND PEE DEE... CITY SKY/WX TMP DP RH WIND PRES REMARKS GEORGETOWN NOT AVBL KINGSTREE NOT AVBL ORANGEBURG CLOUDY 51 22 31 N16G24 29.93F BARNWELL FAIR 57 30 35 N18 29.93F AIKEN FAIR 54 27 35 N10G17 29.97S MANNING FAIR 45 23 42 N17G24 29.90F COLUMBIA PTSUNNY 54 22 28 N10G20 29.94F SUMTER PTSUNNY 48 22 35 N17G23 29.92S FLORENCE CLOUDY 40 30 67 NW9 29.89F WCI 34 MYRTLE BEACH LGT RAIN 37 28 70 N21G31 N/A FOG WCI 27 N MYRTLE BEACH RAIN 37 34 89 N18G28 29.77S FOG WCI 27 $$ GAZ063-065-086>088-099>101-113>116-118-119-134>141-150-072200- ...SOUTHEAST GEORGIA... CITY SKY/WX TMP DP RH WIND PRES REMARKS SAVANNAH ARPT MOSUNNY 54 25 32 N14 29.94F HUNTER AAF SUNNY 54 26 34 N20G26 29.92F FORT STEWART SUNNY 55 27 34 NW17G28 29.94S STATESBORO SUNNY 60 16 18 N12 29.95S SYLVANIA CLEAR 57 30 35 N13G20 29.95R CLAXTON FAIR 58 33 38 W12 29.95F ...CSRA...CENTRAL AND FAR SOUTHEAST GEORGIA... CITY SKY/WX TMP DP RH WIND PRES REMARKS THOMSON SUNNY 58 29 33 NW12 29.99F AUGUSTA-BUSH SUNNY 58 24 27 N12 29.94F AUGUSTA-DANIEL SUNNY 57 23 26 NW14G21 29.95F SWAINSBORO FAIR 57 27 30 NW7 29.97S VIDALIA SUNNY 57 27 30 NW9G17 29.97F EASTMAN FAIR 58 24 26 NW6 30.02S HAZLEHURST FAIR 58 24 27 NW10G20 29.98S ALMA SUNNY 57 24 28 NW15 29.99S WAYCROSS SUNNY 59 30 32 NW15G23 29.99S JESUP FAIR 59 32 36 N8G18 29.97S BAXLEY FAIR 57 23 26 NW15 29.98S BRUNSWICK SUNNY 55 28 35 NW10G18 29.96F SAINT SIMONS SUNNY 55 29 36 NW12G17 29.95F $$ SCZ027-028-034-036>038-045-046-048>050-GAZ119-141-072200- ...LAKE AND SUPPLEMENTAL COASTAL OBSERVATIONS... STATION/POSITION TIME TEMP WIND PRES WAVE SWELL AIR SEA DIR/SP/G HT/PER HT/PER/DIR (UTC) (F) (DEG/KT/KT) (MB) (FT/S) (FT/S/D) WINYAH BAY NOT AVBL LAKE MURRAY 2000 53 350/ 3/ 10 1013.9F ACE BASIN NERRS NOT AVBL FORT PULASKI 2100 52 53 330/ 14/ 19 1013.6F SAPELO ISLAND 2000 55 320/ 17 1014.0F $$ ANZ835-935-AMZ111-154-330-350-352-354-370-450-454-472-072200- ...C-MAN AND BUOY OBSERVATIONS... STATION/POSITION TIME TEMP WIND PRES WAVE SWELL AIR SEA DIR/SP/G HT/PER HT/PER/DIR (UTC) (F) (DEG/KT/KT) (MB) (FT/S) (FT/S/D) BUOY 41004 2050 45 66 330/ 35/ 45 1007.2R 12/ 7 2/11 BUOY 41008 2050 51 55 340/ 21/ 27 1013.7S 6/ 5 2/110/11 FOLLY BEACH CMAN 2100 42 330/ 14/ 19 1012.1R CAPERS NEARSHORE 2008 42 330/ 27/ 37 1008.9F FRIPP NEARSHORE 2000 46 320/ 23/ 27 1012.6F STATION/POSITION TIME TEMP WIND PRES WAVE SWELL AIR SEA DIR/SP/G HT/PER HT/PER/DIR (UTC) (F) (DEG/KT/KT) (MB) (FT/S) (FT/S/D) 5E ST. MARYS GA 2021 56 N/A 5/ 6 2/100/11 FRYING PAN BUOY 2100 45 67 320/ 39/ 49 1001.4F BUOY 41025 2050 57 70 20/ 39/ 51 995.8F 16/ 8 CAPE LOOKOUT NC NOT AVBL BUOY 41002 2050 62 69 270/ 29/ 37 N/A 13/ 8 BUOY 41010 2020 62 74 1008.5R ST AUGUSTINE FL 2100 54 57 310/ 13/ 20 1015.1S $$

USA.gov is the U.S. government's official web portal to all federal, state and local government web resources and services.